Back to catalog

STARLINK-36999

AliveCommunicationsVLEO
NORAD 68268·PAYLOAD·🇺🇸 United States

Launched Mar 19, 2026 from Vandenberg Space Force Base

Loading…

Next Passes (next 24 hours)

TLE

FreshSource: CelesTrak SupGP

Epoch: Sep 14, 2026, 21:40 UTC

1 68268C 26055G   26257.90326389 -.00017221  00000+0 -50888-3 0  2573
2 68268  53.1569 155.5996 0001490 103.0410  36.4565 15.34393481    15

Track STARLINK-36999 in real time with AllMySat

Download on the App Store